sat.trackr.live / text

‹ back to catalog

ONEWEB-0222

NORAD 48775 · 2021-045J

PAYLOAD ACTIVE UNKNOWN

§ Identity

Operator
Country
UK
Launch date
2021-05-28
Launch site
VOSTO
Launch vehicle
Mass (kg)
RCS (m²)

Purposes: comms

External: N2YO · Heavens-Above · Gunter

§ Orbital elements

Epoch: 2026-09-20T04:42:14.881248Z

Period
109.46 min
Inclination
87.8993°
Eccentricity
0.0001887
Mean motion
13.15548563 rev/d
Perigee alt
1,200.3 km
Apogee alt
1,203.2 km
Semi-major
7,579.9 km
B*
-3.3098e-4
RAAN
240.2465°
Arg perigee
76.9657°
Mean anomaly
283.1684°
Rev number
25,689

§ Raw data

ONEWEB-02221 48775U 21045J   26263.19600557 -.00000112  00000+0 -33098-3 0  99962 48775  87.8993 240.2465 0001887  76.9657 283.1684 13.15548563256897

JSON: /api/v1/satellites/48775 · /tle

For live sub-satellite position, see the globe view (requires WebGL).

§ Visibility from observer

Set your observer location to see the next 7 days of passes ≥ 10°. The values pass through the URL so the page stays shareable.

No JS? Fill the form by hand. The geolocation button needs JavaScript.